Orbital Elements at Epoch 2459200.5 (2020-Dec-17.0) TDB
Reference: JPL 49 (heliocentric ecliptic J2000)
Element | Value | Uncertainty (1-sigma) | Units |
e | .5666728675134942 | 1.5454e-07 | |
a | .8349801215738646 | 1.1369e-08 | au |
q | .3618195417648367 | 1.2794e-07 | au |
i | 13.77871975815465 | 1.7909e-05 | deg |
node | 3.88250102878181 | 4.2942e-05 | deg |
peri | 310.1143782727464 | 3.8603e-05 | deg |
M | 353.6804091276691 | 4.3444e-05 | deg |
tp | 2459205.392142442774 (2020-Dec-21.89214244) | 3.3719e-05 | TDB |
period | 278.684382419353 0.76 | 5.6919e-06 1.558e-08 | d yr |
n | 1.291783905774406 | 2.6384e-08 | deg/d |
Q | 1.308140701382893 | 1.7812e-08 | au |
|
Additional Model Parameters
Parameter | Value | Uncertainty (1-sigma) |
A2 [EST] | 6.181928773838214E-14 | 1.329E-14 |
ALN [SET] | 1. | n/a |
NK [SET] | 0. | n/a |
NM [SET] | 2. | n/a |
R0 [SET] | 1. | n/a |
|
| | Orbit Determination Parameters
Additional Information
|